User: anonymous   Login
Location: Ab? ar R?sh Ba?r?
(24.1861°N, 32.8847°E)
Time: 17:08:17
(UTC+00:00)
Language:

NATO 3D Rocket - Orbit

View from above orbital plane
View from above orbital plane
View from above satellite
View from above satellite

Ground track
Ground track

The orbit data is extracted from the following two-line orbital elements,

1 15392U 84115B   22018.84926828  .00000155  00000-0  93749-5 0  9997
2 15392  21.4880 209.2089 1034170  49.7061 318.9254 12.45603791675444
Epoch (UTC): 18 January 2022 20:22:56
Eccentricity: 0.1034170
inclination: 21.4880°
perigee height: 670 km
apogee height: 2296 km
right ascension of ascending node: 209.2089°
argument of perigee: 49.7061°
revolutions per day: 12.45603791
mean anomaly at epoch: 318.9254°
orbit number at epoch: 67544

The dashed part of the orbit path shows where the satellite is in the earth's shadow,  

DLR